User: anonymous   Login
Location: Unspecified
(0.0000°N, 0.0000°E)
Time: 03:00:41
(UTC+00:00)
Language:

POPSAT HIP 1 - Orbit

View from above orbital plane
View from above orbital plane
View from above satellite
View from above satellite

Ground track
Ground track

The orbit data is extracted from the following two-line orbital elements,

1 40028U 14033U   17324.82259417  .00000548  00000-0  65031-4 0  9996
2 40028  97.9100 235.9292 0014478 143.2203 216.9989 14.88433457185772
Epoch (UTC): 20 November 2017 19:44:32
Eccentricity: 0.0014478
inclination: 97.9100°
perigee height: 593 km
apogee height: 613 km
right ascension of ascending node: 235.9292°
argument of perigee: 143.2203°
revolutions per day: 14.88433457
mean anomaly at epoch: 216.9989°
orbit number at epoch: 18577

The dashed part of the orbit path shows where the satellite is in the earth's shadow,  

DLR